"Pseudo-MPEC" for P11poKn

Created 2021 Nov 26 17:07:09 UT using Find_Orb

Click here for an explanation of pseudo-MPECs

 
 Astrometry: 
     P11poKn  C2021 11 25gZ9QcB[4IDR_\IlhRqwjjTAstrometry5;rfQuOJb/=9M_Nacsm/F51
     P11poKn  C2021 11 25pHwsNld(\(Credacted;THO*xyclickFap:hVhhereOs;vO$mxIqF51
     P11poKn  C2021 11 25P53Rq0`@_jr873/Q?s+85(g9O?ox7ngxwa7QjOh#^s%Wmeo\m7OvF51
     P11poKn  C2021 11 25VENGywN@w=^D.648Xkv,K.y6#5)ndYKc-Lb^T(\Z@$b0lC8forQOF51
     P11poKn  C2021 11 25c_(yb=\W';\E.-explanationacjCCD=,NH-K`^TIC\H_S*p4y,YF51
     P11poKn  C2021 11 25VoA=Xe:U/11;94dt:x]Twa_Gv^T/:IP1[;%j$7tPjv;d73NB=%)MF51

Station data:
(F51) Pan-STARRS 1, Haleakala  (N20.707235 W156.255910)  US/Hawaii.
   Observers N. Primak, A. Schultz, S. Watters, J. Thiel, T. Goggia. Measurer
   PS1 Science Consortium. 1.8-m Ritchey-Chrétien + CCD.

Orbital elements:  P11poKn
   Perihelion 2021 Mar 29.768883 +/- 378.741 TT = 18:27:11 (JD 2459303.268883)
Epoch 2021 Nov 26.0 TT = JDT 2459544.5   Earth MOID: 0.5516   AutoNEOCP
M  60.23654209 +/- 81.391654        (J2000 ecliptic)
n   0.24970469 +/- 0.172116         Peri.  196.72874 +/- 70.408253
a   2.49757331 +/- 1.14766          Node   131.22965 +/- 33.523337
e   0.3756762 +/- 0.252045          Incl.   14.00607 +/- 47.962257
P   3.95                   H 18.3   G  0.15   U 11.6  SR
q 1.55929431 +/- 1.15351    Q 3.43585231 +/- 32.4717
From 6 observations 2021 Nov. 25 (3.1 hr); mean residual 0".05
Residuals in arcseconds: 
211125 F51  .01-  .05-    211125 F51  .04+  .08+    211125 F51  .03-  .09-    
211125 F51  .01+  .05-    211125 F51  .03-  .05+    211125 F51  .03+  .06+    

Ephemerides (geocentric):
Date (UTC) HH   RA              Dec         delta   r     elong  mag " sig PA
---- -- -- --  -------------   -----------  ------ ------ -----  --- ---- ---
2021 11 26 17  05 19 14.281   +02 59 22.18  1.4297 2.3623 155.2 21.6 54.7 167
2021 11 26 18  05 19 11.507   +02 59 24.25  1.4297 2.3625 155.3 21.6 56.0 167
2021 11 26 19  05 19 08.732   +02 59 26.34  1.4298 2.3627 155.3 21.6 57.4 167
2021 11 26 20  05 19 05.956   +02 59 28.46  1.4298 2.3628 155.3 21.6 58.7 167
2021 11 26 21  05 19 03.179   +02 59 30.59  1.4299 2.3630 155.4 21.6 60.0 167
2021 11 26 22  05 19 00.400   +02 59 32.75  1.4299 2.3632 155.4 21.6 61.3 166
2021 11 26 23  05 18 57.621   +02 59 34.93  1.4300 2.3634 155.4 21.6 62.5 166
2021 11 27 00  05 18 54.840   +02 59 37.13  1.4300 2.3636 155.5 21.6 63.8 166
2021 11 27 01  05 18 52.058   +02 59 39.35  1.4301 2.3637 155.5 21.6 65.0 166
2021 11 27 02  05 18 49.275   +02 59 41.60  1.4301 2.3639 155.5 21.6 66.2 166
2021 11 27 03  05 18 46.491   +02 59 43.86  1.4302 2.3641 155.6 21.6 67.4 165
2021 11 27 04  05 18 43.706   +02 59 46.15  1.4302 2.3643 155.6 21.6 68.6 165
2021 11 27 05  05 18 40.920   +02 59 48.45  1.4303 2.3644 155.6 21.6 69.8 165
2021 11 27 06  05 18 38.132   +02 59 50.78  1.4303 2.3646 155.7 21.6 71.0 165
2021 11 27 07  05 18 35.344   +02 59 53.13  1.4304 2.3648 155.7 21.6 72.2 165
2021 11 27 08  05 18 32.554   +02 59 55.50  1.4304 2.3650 155.7 21.6 73.4 165
2021 11 27 09  05 18 29.764   +02 59 57.89  1.4305 2.3652 155.8 21.6 74.6 164
2021 11 27 10  05 18 26.972   +03 00 00.31  1.4305 2.3653 155.8 21.6 75.9 164
2021 11 27 11  05 18 24.179   +03 00 02.74  1.4306 2.3655 155.8 21.6 77.1 164
2021 11 27 12  05 18 21.385   +03 00 05.20  1.4306 2.3657 155.9 21.6 78.3 164
2021 11 27 13  05 18 18.591   +03 00 07.68  1.4307 2.3659 155.9 21.6 79.6 164
2021 11 27 14  05 18 15.795   +03 00 10.18  1.4307 2.3661 155.9 21.6 80.8 164
2021 11 27 15  05 18 12.998   +03 00 12.70  1.4308 2.3662 155.9 21.6 82.1 164
2021 11 27 16  05 18 10.200   +03 00 15.24  1.4308 2.3664 156.0 21.6 83.4 164
2021 11 27 17  05 18 07.400   +03 00 17.80  1.4309 2.3666 156.0 21.6 84.7 164
2021 11 27 18  05 18 04.600   +03 00 20.39  1.4310 2.3668 156.0 21.6 86.1 165
2021 11 27 19  05 18 01.799   +03 00 23.00  1.4310 2.3669 156.1 21.6 87.5 165
2021 11 27 20  05 17 58.997   +03 00 25.62  1.4311 2.3671 156.1 21.6 88.9 165
2021 11 27 21  05 17 56.194   +03 00 28.27  1.4311 2.3673 156.1 21.6 90.4 165
2021 11 27 22  05 17 53.390   +03 00 30.94  1.4312 2.3675 156.2 21.6 91.9 166
2021 11 27 23  05 17 50.585   +03 00 33.64  1.4312 2.3677 156.2 21.6 93.5 166
2021 11 28 00  05 17 47.778   +03 00 36.35  1.4313 2.3678 156.2 21.6 95.2 166
2021 11 28 01  05 17 44.971   +03 00 39.09  1.4314 2.3680 156.2 21.6 96.9 167
2021 11 28 02  05 17 42.163   +03 00 41.84  1.4314 2.3682 156.3 21.6 98.6 167
2021 11 28 03  05 17 39.354   +03 00 44.62  1.4315 2.3684 156.3 21.6  100 168
2021 11 28 04  05 17 36.544   +03 00 47.42  1.4315 2.3685 156.3 21.5  102 169
2021 11 28 05  05 17 33.733   +03 00 50.24  1.4316 2.3687 156.4 21.5  104 169
2021 11 28 06  05 17 30.921   +03 00 53.08  1.4317 2.3689 156.4 21.5  107 170
2021 11 28 07  05 17 28.108   +03 00 55.95  1.4317 2.3691 156.4 21.5  109 171
2021 11 28 08  05 17 25.294   +03 00 58.83  1.4318 2.3693 156.5 21.5  111 172
2021 11 28 09  05 17 22.479   +03 01 01.74  1.4318 2.3694 156.5 21.5  114 173
2021 11 28 10  05 17 19.664   +03 01 04.67  1.4319 2.3696 156.5 21.5  116 173
2021 11 28 11  05 17 16.847   +03 01 07.62  1.4320 2.3698 156.5 21.5  119 174
2021 11 28 12  05 17 14.029   +03 01 10.59  1.4320 2.3700 156.6 21.5  122 175
2021 11 28 13  05 17 11.211   +03 01 13.58  1.4321 2.3701 156.6 21.5  125 176
2021 11 28 14  05 17 08.391   +03 01 16.60  1.4322 2.3703 156.6 21.5  128 177
2021 11 28 15  05 17 05.571   +03 01 19.63  1.4322 2.3705 156.7 21.5  131 178
2021 11 28 16  05 17 02.750   +03 01 22.69  1.4323 2.3707 156.7 21.5  135 179